Weather History for KLAW - January, 2014

Change the Weather History Date:

Wednesday, January 1, 2014

  Actual Average Record
Temperature  
Mean Temperature 42 °F -  
Max Temperature 59 °F 47 °F 78 °F (2006)
Min Temperature 25 °F 26 °F 9 °F (1991)
Degree Days  
Heating Degree Days 22    
Moisture  
Dew Point 27 °F    
Average Humidity 66    
Maximum Humidity 88    
Minimum Humidity 32    
Precipitation  
Precipitation 0.00 in - - ()
Sea Level Pressure  
Sea Level Pressure 30.04 in    
Wind  
Wind Speed 10 mph (NNE)    
Max Wind Speed 26 mph    
Max Gust Speed 34 mph    
Visibility 10 miles    
Events      
Averages and records for this station are not official NWS values.
T = Trace of Precipitation, MM = Missing Value Source: NWS Daily Summary

Daily Weather History Graph

Daily Weather History Graph

Search for Another Location

Airport or City:

Trip Planner

Search our weather history database for the weather conditions in past years. The results will help you decide how hot, cold, wet, or windy it might be!

Date:

Astronomy

Jan. 01, 2014 Rise Set
Actual Time 7:40 AM CST 5:34 PM CST
Civil Twilight 7:12 AM CST 6:02 PM CST
Nautical Twilight 6:41 AM CST 6:33 PM CST
Astronomical Twilight 6:10 AM CST 7:04 PM CST
Moon 7:35 AM CST (1/1) 6:17 PM CST (1/1)
Length of Visible Light 10h 49m
Length of Day
9h 53m
New Moon, 0% of the Moon is Illuminated
Jan 1
New Moon
Jan 7
First Quarter
Jan 15
Full
Jan 23
Last Quarter
Jan 30
New

Hourly Weather History & Observations

Time (CST) Temp. Windchill Dew Point Humidity Pressure Visibility Wind Dir Wind Speed Gust Speed Precip Events Conditions
12:53 AM 33.1 °F 26.9 °F 27.0 °F 78% 30.10 in 10.0 mi SE 6.9 mph - N/A   Clear
1:53 AM 32.0 °F 25.6 °F 27.0 °F 82% 30.07 in 10.0 mi ESE 6.9 mph - N/A   Clear
2:53 AM 32.0 °F 26.4 °F 27.0 °F 82% 30.04 in 10.0 mi ESE 5.8 mph - N/A   Clear
3:53 AM 32.0 °F 24.8 °F 27.0 °F 82% 30.01 in 10.0 mi ESE 8.1 mph - N/A   Clear
4:53 AM 30.9 °F 26.2 °F 27.0 °F 85% 29.99 in 10.0 mi SE 4.6 mph - N/A   Clear
5:53 AM 30.9 °F 25.2 °F 27.0 °F 85% 29.97 in 10.0 mi ESE 5.8 mph - N/A   Clear
6:53 AM 30.0 °F 24.1 °F 27.0 °F 88% 29.96 in 10.0 mi ESE 5.8 mph - N/A   Clear
7:53 AM 30.0 °F 21.1 °F 27.0 °F 88% 29.94 in 10.0 mi SE 10.4 mph - N/A   Clear
8:53 AM 36.0 °F 29.6 °F 30.9 °F 82% 29.94 in 10.0 mi South 8.1 mph - N/A   Clear
9:53 AM 43.0 °F 37.2 °F 34.0 °F 71% 29.93 in 10.0 mi SSW 10.4 mph - N/A   Clear
10:53 AM 48.9 °F - 35.1 °F 59% 29.92 in 10.0 mi SW 10.4 mph - N/A   Clear
11:53 AM 54.0 °F - 33.1 °F 45% 29.89 in 10.0 mi SW 11.5 mph 17.3 mph N/A   Clear
12:53 PM 55.9 °F - 33.1 °F 42% 29.88 in 10.0 mi West 8.1 mph - N/A   Clear
1:53 PM 57.0 °F - 30.9 °F 37% 29.88 in 10.0 mi NW 6.9 mph - N/A   Clear
2:53 PM 59.0 °F - 28.9 °F 32% 29.89 in 10.0 mi NW 6.9 mph - N/A   Clear
3:53 PM 54.0 °F - 33.1 °F 45% 29.95 in 10.0 mi NNW 15.0 mph 26.5 mph N/A   Clear
4:53 PM 52.0 °F - 33.1 °F 49% 30.01 in 10.0 mi North 19.6 mph 26.5 mph N/A   Clear
5:53 PM 39.0 °F 27.8 °F 28.0 °F 65% 30.10 in 10.0 mi North 26.5 mph 34.5 mph N/A   Clear
6:53 PM 35.1 °F 23.5 °F 25.0 °F 67% 30.17 in 10.0 mi North 21.9 mph 32.2 mph N/A   Clear
7:53 PM 33.1 °F 21.5 °F 21.9 °F 64% 30.23 in 10.0 mi North 19.6 mph 27.6 mph N/A   Mostly Cloudy
8:53 PM 30.9 °F 18.4 °F 19.0 °F 61% 30.24 in 10.0 mi North 20.7 mph 26.5 mph N/A   Scattered Clouds
9:53 PM 28.9 °F 16.9 °F 18.0 °F 64% 30.29 in 10.0 mi NNW 17.3 mph 24.2 mph N/A   Clear
10:53 PM 26.1 °F 12.3 °F 18.0 °F 71% 30.33 in 10.0 mi North 19.6 mph 27.6 mph N/A   Clear
11:53 PM 25.0 °F 10.9 °F 17.1 °F 72% 30.35 in 10.0 mi North 19.6 mph 29.9 mph N/A   Clear